Location: Great Chart
(51.1333°N, 0.8333°E)
Time: 09:41:16
(UTC+00:00)

Resurs 1-4 Rocket - Pass Details

Date: 19 September 2020
Orbit: 800 x 813 km, 98.6° (Epoch: 30 October)

Event Time Altitude Azimuth Distance (km) Brightness Sun altitude
Rises 03:49:47 0° 4° (N) 3,326 5.7 -17.3°
Reaches altitude 10° 03:53:19 10° 339° (NNW) 2,392 4.6 -16.8°
Maximum altitude 03:55:47 13° 311° (NW) 2,152 4.1 -16.4°
Enters shadow 03:57:03 12° 295° (WNW) 2,218 4.0 -16.3°
